SCP
0 0 0 0 0 0 0 0 0 0 0 0 0 0 0 0 0 0 0 0 0 0 0 0 0 0 0 0 0 0 0 0 0 0 0 0 0 0 0 0 0 0 0
0 0 0 0 0 0 0 0 0 0 0 0 0 0 0 0 0 0 0 0 0 0 0 0 0 0 0 0 0 0 0 0 0 0 0 0 0 0 0 0 0 0 0
0 0 0 0 0 0 0 0 0 0 0 0 0 0 0 0 0 0 0 0 0 0 0 0 0 0 0 0 0 0 0 0 0 0 0 0 0 0 0 0 0 0 0
1 1 1 0 0 0 0 0 0 0 0 0 0 0 0 0 0 0 0 0 0 0 0 0 1 0 0 0 0 0 0 0 0 0 0 0 0 0 0 0 0 0 0
1 1 1 1 0 0 0 0 0 0 0 0 0 0 0 0 0 0 0 0 0 0 0 0 1 0 0 0 0 0 0 0 0 0 0 0 0 0 0 0 0 0 0
1 1 1 1 0 0 0 0 0 0 0 0 0 0 0 0 0 0 0 0 0 0 0 0 0 0 0 0 0 0 0 0 0 0 0 0 0 0 0 0 0 0 0
1 1 1 1 0 0 0 0 0 0 0 0 0 0 0 0 0 0 0 0 0 0 0 0 0 0 0 0 0 0 0 0 0 0 0 0 0 0 0 0 0 0 0
1 1 1 1 1 0 0 0 0 0 0 0 0 0 0 0 0 0 0 0 0 0 0 0 0 0 0 0 0 0 0 0 0 0 0 0 0 0 0 0 0 0 0
1 1 1 1 1 0 0 0 0 0 0 0 0 0 0 0 0 0 0 0 0 0 0 0 0 0 0 0 0 0 0 1 1 1 1 1 0 0 0 0 0 0 0
1 1 1 1 1 1 0 0 0 0 0 0 0 0 0 0 0 0 0 0 0 0 0 0 0 0 0 0 0 0 1 1 1 1 1 1 1 1 1 0 0 0 0
1 1 1 1 1 1 0 0 0 0 0 0 0 0 0 0 0 0 0 0 0 0 0 0 0 0 0 0 0 1 1 1 1 1 1 1 1 1 1 1 1 0 0
1 1 1 1 1 0 0 0 0 0 0 0 0 0 0 0 0 0 0 0 0 0 0 0 0 0 0 0 0 1 1 1 1 1 1 1 1 1 1 1 1 1 1
0 0 1 1 1 0 0 0 0 0 0 0 0 0 0 0 0 0 0 0 0 0 0 0 0 0 0 0 0 1 1 1 1 1 1 1 1 1 1 1 1 1 1
0 0 0 0 0 0 0 0 0 0 0 0 0 0 0 0 0 0 0 0 0 0 0 0 0 0 0 0 0 0 1 1 1 0 1 1 0 0 0 1 1 1 1
0 0 0 0 0 0 0 0 0 0 0 0 0 0 0 0 0 0 0 0 0 0 0 0 0 0 0 0 0 0 0 0 0 0 0 0 0 0 0 0 0 0 1
0 0 0 0 0 0 0 0 0 0 0 0 0 0 0 0 0 0 0 0 0 0 0 0 0 0 0 0 0 0 0 0 0 0 0 0 0 0 0 0 0 0 0
0 0 0 0 0 0 0 0 0 0 0 0 0 0 0 0 0 0 0 0 0 0 0 0 0 0 0 0 0 0 0 0 0 0 0 0 0 0 0 0 0 0 0
1 1 0 0 0 0 0 0 0 0 0 0 0 0 0 0 0 0 0 0 0 0 0 0 0 0 0 0 0 0 0 0 0 0 0 0 0 0 0 0 0 0 0
1 0 0 0 0 0 0 0 0 0 0 0 0 0 0 0 0 0 0 0 0 0 0 0 0 0 0 0 0 0 0 0 0 0 0 0 0 0 0 0 0 0 0
1 0 0 0 0 0 0 0 0 0 0 0 0 0 0 0 0 0 0 0 0 0 0 0 0 0 0 0 0 0 0 0 0 0 0 0 0 0 0 0 0 0 0
1 1 0 0 0 0 0 0 0 0 0 0 0 0 0 0 0 0 0 0 0 0 0 0 0 0 0 0 0 0 0 0 0 0 0 0 0 0 0 0 0 0 0
2 1 0 0 0 0 0 0 0 0 0 0 0 0 0 0 0 0 0 0 0 0 0 0 0 0 0 0 0 0 0 0 0 0 0 0 0 0 0 0 0 0 0
3 2 1 0 0 0 0 0 0 0 0 0 0 0 0 0 0 0 0 0 0 0 0 0 0 0 0 0 0 0 0 0 0 0 0 0 0 0 0 0 0 0 0
5 3 1 0 0 0 0 0 0 0 0 0 0 0 0 0 0 0 0 0 0 0 0 0 0 0 0 0 0 0 0 0 0 0 0 0 0 0 0 0 0 0 0
7 4 2 0 0 0 0 0 0 0 0 0 0 0 0 0 0 0 0 0 0 0 0 0 0 0 0 0 0 0 0 0 0 0 0 0 0 0 0 0 0 0 0
7 5 2 0 0 0 0 0 0 0 0 0 0 0 0 0 0 0 0 0 0 0 0 0 0 0 0 0 0 0 0 0 0 0 0 0 0 0 0 0 0 0 0
Wind_Speed
4 4 3 3 3 2 2 2 2 2 2 2 3 5 5 5 4 4 4 12 12 11 12 13 12 12 11 11 11 10 10 10 9 9 9 9 9 9 9 8 8 7 7
4 4 3 3 3 3 3 3 3 2 2 2 3 4 5 5 4 4 3 7 12 12 12 12 12 12 11 11 11 10 10 10 10 9 8 8 8 9 9 8 8 7 7
5 4 3 3 3 3 3 2 2 2 2 2 3 3 4 5 5 5 4 3 5 10 11 12 11 12 12 12 11 11 11 10 10 9 9 8 8 8 8 8 8 7 7
5 4 3 3 3 3 3 2 2 2 1 2 2 2 3 4 5 5 4 4 3 4 7 12 11 11 12 12 12 12 11 11 10 10 9 9 9 8 8 8 8 8 8
5 4 3 3 3 2 2 3 2 2 2 2 2 2 2 3 4 5 5 5 4 4 4 7 11 11 12 12 12 12 12 12 12 12 11 11 10 9 9 9 9 8 8
5 4 3 3 3 3 2 2 2 2 2 2 2 2 1 1 2 3 5 5 4 5 5 5 5 7 12 12 12 12 13 13 13 13 13 13 12 11 10 10 10 10 10
5 4 3 3 3 3 3 3 2 3 2 2 3 2 2 1 1 3 3 4 5 5 5 5 4 4 4 10 11 11 13 13 13 13 13 13 13 12 11 11 11 11 11
5 4 4 3 3 3 3 3 3 2 1 2 3 3 1 3 2 2 2 3 4 4 5 7 6 6 5 3 6 12 13 13 14 14 13 13 13 12 12 13 12 12 12
5 5 5 4 3 3 3 3 3 4 2 1 2 4 3 3 2 2 2 3 3 3 4 4 6 6 7 5 5 9 13 13 13 14 14 13 13 12 13 13 13 13 13
5 5 5 5 4 3 3 3 3 3 3 2 1 0 2 4 3 1 2 2 3 4 5 5 6 6 6 5 6 9 12 12 13 13 13 13 13 12 13 13 14 14 14
4 5 5 5 4 3 3 3 4 3 3 3 1 1 1 1 2 2 1 2 2 3 4 5 4 5 6 6 5 9 12 12 13 13 12 12 12 12 13 13 14 14 15
3 4 5 5 4 4 4 4 4 4 3 3 2 2 2 2 1 2 2 2 2 3 3 4 4 5 5 5 8 12 13 13 13 13 12 12 12 12 12 13 14 15 15
3 4 4 4 4 4 4 4 4 3 3 3 2 2 1 1 2 2 2 1 1 3 2 2 4 4 5 4 6 11 12 13 13 13 13 12 12 11 11 12 12 13 13
4 5 5 5 5 4 4 3 2 2 2 2 2 2 1 0 1 2 2 2 0 2 2 3 2 2 3 3 6 10 7 12 13 13 12 12 12 12 11 11 11 11 12
4 6 6 5 4 4 4 4 2 2 2 2 2 2 1 0 1 1 1 2 3 1 2 3 2 3 2 2 4 4 4 9 11 12 12 12 12 12 12 12 12 12 12
4 6 5 5 5 4 4 4 2 2 2 2 1 1 1 0 1 1 1 1 2 3 2 2 2 3 3 2 1 2 3 5 8 10 11 11 12 12 12 12 12 12 12
5 6 5 5 5 4 4 4 3 2 2 1 1 2 1 1 1 2 2 2 1 2 1 2 2 2 3 3 2 2 2 2 3 6 8 9 10 11 11 12 12 12 13
5 5 5 4 4 4 4 4 3 3 3 2 2 2 2 2 3 2 2 2 2 1 1 1 2 2 2 3 3 3 3 3 3 5 6 7 8 9 10 11 11 11 12
5 5 5 5 4 4 4 3 3 4 4 3 3 3 2 3 3 3 3 3 2 2 2 1 1 2 2 3 3 3 3 3 4 5 5 5 6 8 8 9 10 11 11
6 6 5 5 4 4 4 4 5 6 6 6 6 5 5 4 3 3 3 3 3 3 3 2 2 2 2 3 3 3 3 4 4 5 5 6 7 8 9 9 10 10 10
7 6 6 6 5 5 4 5 6 6 7 7 6 6 6 8 8 5 4 3 3 3 3 2 2 2 3 3 3 3 3 4 3 3 4 5 5 4 5 7 9 9 9
8 8 8 7 7 5 6 9 8 6 6 7 6 5 7 8 9 10 11 9 7 4 3 2 2 2 2 2 2 3 2 3 4 3 4 5 4 4 5 4 7 9 10
9 9 8 9 8 7 11 12 12 8 7 7 6 5 6 7 8 6 8 11 11 12 9 3 2 2 2 2 2 3 2 2 3 4 3 4 3 4 5 6 10 10 10
10 9 9 8 8 9 13 14 14 10 9 8 7 7 6 6 7 6 6 7 6 6 6 5 2 3 3 3 2 2 2 3 4 4 2 3 3 3 5 5 7 9 10
11 9 8 9 10 9 12 13 12 8 8 8 7 6 6 6 9 9 7 6 6 6 7 10 9 8 8 9 5 3 4 3 3 4 2 2 3 4 4 4 5 9 11
11 11 10 9 10 9 12 13 11 7 7 5 5 5 7 6 7 8 5 5 5 5 6 7 8 9 8 9 11 5 2 2 3 4 3 3 3 4 5 3 3 5 7
Wind_Direction
164 167 172 179 188 180 174 169 181 189 170 157 150 147 154 164 170 168 179 179 175 173 173 173 173 172 171 170 170 171 171 170 170 170 171 170 169 168 167 165 164 162 161
159 158 164 174 186 185 178 173 178 173 165 151 146 151 163 164 170 175 181 184 182 180 181 181 180 179 178 179 180 180 181 181 180 181 181 180 179 180 179 178 175 174 172
153 152 156 167 178 174 165 157 156 133 144 146 145 152 158 167 173 182 181 179 182 188 186 185 185 186 187 189 190 190 191 190 187 188 188 187 187 188 187 186 187 186 185
148 144 148 161 162 149 145 141 135 125 120 131 146 166 159 163 173 181 178 177 178 190 197 194 190 193 195 197 198 197 198 198 195 195 195 196 195 196 197 196 196 195 195
146 140 146 156 145 130 133 151 130 135 140 150 162 166 163 159 175 180 184 187 188 191 193 203 199 200 204 207 207 205 204 205 204 203 204 205 206 204 205 205 205 204 205
142 135 137 139 129 120 119 125 125 116 132 153 144 124 163 171 163 183 193 191 195 200 198 205 204 212 213 214 214 213 212 211 211 211 212 212 213 211 210 212 213 213 214
136 131 132 129 126 132 146 140 123 107 99 110 88 52 3 350 203 207 196 189 198 203 197 203 203 207 218 222 221 222 222 221 218 217 217 217 217 215 215 217 218 220 221
141 145 139 135 131 124 121 120 115 110 89 121 125 110 39 342 317 235 202 200 204 201 206 209 205 208 214 211 222 226 228 229 227 224 222 221 220 219 218 220 221 223 225
146 145 142 136 136 132 139 140 132 128 122 72 132 142 146 211 281 309 242 214 204 206 217 213 210 213 215 214 219 229 230 229 231 231 226 223 222 223 224 225 226 226 227
149 147 141 137 135 135 139 144 131 127 124 102 44 96 160 158 154 277 315 271 226 218 217 217 215 217 217 214 218 222 228 228 230 233 231 228 226 226 229 231 232 233 232
151 148 141 133 128 129 135 126 115 111 120 131 126 99 74 74 113 140 243 290 282 249 226 223 217 217 217 213 215 224 226 226 227 231 233 233 230 229 231 234 238 240 239
152 152 140 135 133 133 140 137 127 124 123 120 118 115 128 132 173 157 188 238 255 268 245 233 225 221 218 214 222 224 222 223 225 228 232 234 234 235 236 237 241 243 244
162 169 147 142 141 147 147 136 125 125 132 128 132 131 135 164 175 157 153 200 258 287 290 261 237 229 226 213 224 226 223 222 224 226 229 233 236 239 241 242 243 245 246
171 165 154 149 148 148 143 136 130 137 132 132 124 122 117 132 134 150 159 150 99 321 322 295 294 251 239 222 229 226 230 226 226 227 230 234 237 241 243 243 244 245 246
164 159 157 152 151 148 142 136 128 141 138 138 132 121 120 107 76 100 126 144 149 190 289 295 310 308 280 243 241 221 229 233 230 231 233 237 241 244 245 245 245 245 245
154 155 158 156 153 149 145 135 131 137 133 140 143 120 94 62 57 62 76 93 138 162 221 278 287 311 327 316 265 244 251 254 242 241 242 244 247 248 248 247 247 247 247
153 159 161 159 156 153 149 142 151 145 141 132 107 104 73 60 54 39 54 61 69 126 188 287 297 325 2 355 346 330 306 285 278 262 257 258 260 261 259 256 255 254 253
147 148 147 146 148 144 142 145 153 132 124 119 95 84 58 70 55 40 48 43 39 56 139 287 322 340 357 354 351 353 347 338 310 298 282 276 278 276 272 268 265 263 260
135 131 128 127 123 115 111 121 123 108 99 91 85 83 62 73 62 52 51 42 30 36 52 69 326 333 341 1 358 353 354 352 338 329 328 320 314 310 302 291 283 276 272
126 120 113 110 106 98 94 95 98 95 90 81 76 74 65 67 69 61 55 40 37 35 33 38 5 349 343 343 13 354 344 346 335 340 352 352 345 340 326 313 301 290 282
116 111 105 95 90 92 96 107 105 104 100 90 78 72 69 69 65 61 64 50 50 46 34 29 13 3 355 359 356 341 338 326 321 351 346 335 333 331 325 319 314 310 307
101 96 93 91 81 80 90 99 104 102 101 99 91 78 71 55 54 55 58 57 54 52 42 35 15 2 337 330 329 340 342 352 323 329 344 318 331 327 322 317 328 332 332
105 98 92 88 83 74 83 92 95 95 94 91 87 78 70 55 45 46 50 49 43 43 46 53 23 336 312 305 323 327 328 311 279 291 329 303 322 321 320 327 334 340 343
103 99 93 89 83 73 81 88 90 87 85 82 81 80 75 51 41 48 52 46 35 24 24 32 6 306 306 299 281 278 282 301 293 295 329 291 307 308 316 313 323 344 351
103 97 93 88 83 71 74 83 89 89 86 78 77 76 76 62 46 53 56 43 25 6 9 15 16 21 20 21 21 20 3 3 326 305 327 310 301 307 297 294 315 340 341
107 101 90 82 82 75 71 79 86 95 94 86 69 58 59 57 48 56 61 50 26 351 353 3 13 15 19 21 26 33 14 353 324 308 325 332 306 325 312 299 313 322 322